sat.trackr.live / text

‹ back to catalog

EOS-6 (OCEANSAT-3)

NORAD 54361 · 2022-158A

PAYLOAD ACTIVE UNKNOWN

§ Identity

Operator
Country
IND
Launch date
2022-11-26
Launch site
SRILR
Launch vehicle
Mass (kg)
RCS (m²)

External: N2YO · Heavens-Above · Gunter

§ Orbital elements

Epoch: 2026-05-25T04:55:27.768864Z

Period
99.52 min
Inclination
98.3524°
Eccentricity
0.0002123
Mean motion
14.46984189 rev/d
Perigee alt
734.0 km
Apogee alt
737.0 km
Semi-major
7,113.7 km
B*
7.5908e-5
RAAN
243.7059°
Arg perigee
76.1957°
Mean anomaly
283.9472°
Rev number
18,451

§ Raw data

EOS-6 (OCEANSAT-3)1 54361U 22158A   26145.20518251  .00000232  00000+0  75908-4 0  99982 54361  98.3524 243.7059 0002123  76.1957 283.9472 14.46984189184513

JSON: /api/v1/satellites/54361 · /tle

For live sub-satellite position, see the globe view (requires WebGL).

§ Visibility from observer

Set your observer location to see the next 7 days of passes ≥ 10°. The values pass through the URL so the page stays shareable.

No JS? Fill the form by hand. The geolocation button needs JavaScript.

§ Radio — SatNOGS DB

ModeDescriptionDownlinkUplink
QPSK A-DCS L-band downlink 1.703 GHz
FM A-DCS UHF downlink 465.988 MHz
FM Mode X (active over Norway & India) 8.275 GHz
BPSK S-band Telemetry 2.250 GHz

4 transmitters · refreshed weekly from db.satnogs.org